Weather History for KORL - October, 2013

Change the Weather History Date:

Thursday, October 17, 2013

  Actual Average Record
Temperature  
Mean Temperature 78 °F -  
Max Temperature 88 °F 80 °F 89 °F (2007)
Min Temperature 69 °F 65 °F 57 °F (2000)
Cooling Degree Days 13    
Growing Degree Days 28 (Base 50)    
Moisture  
Dew Point 70 °F    
Average Humidity 86    
Maximum Humidity 100    
Minimum Humidity 48    
Precipitation  
Precipitation 0.00 in - - ()
Sea Level Pressure  
Sea Level Pressure 29.96 in    
Wind  
Wind Speed 1 mph (NNE)    
Max Wind Speed 8 mph    
Max Gust Speed -    
Visibility 6 miles    
Events Fog    
Averages and records for this station are not official NWS values.
T = Trace of Precipitation, MM = Missing Value Source: NWS Daily Summary

Daily Weather History Graph

Daily Weather History Graph

Search for Another Location

Airport or City:

Trip Planner

Search our weather history database for the weather conditions in past years. The results will help you decide how hot, cold, wet, or windy it might be!

Date:

Astronomy

Oct. 17, 2013 Rise Set
Actual Time 7:27 AM EDT 6:53 PM EDT
Civil Twilight 7:03 AM EDT 7:17 PM EDT
Nautical Twilight 6:36 AM EDT 7:44 PM EDT
Astronomical Twilight 6:08 AM EDT 8:11 PM EDT
Moon 6:03 PM EDT (10/17) 6:03 AM EDT (10/17)
Length of Visible Light 12h 13m
Length of Day
11h 25m
Waxing Gibbous, 98% of the Moon is Illuminated
Oct 17
Waxing Gibbous
Oct 18
Full
Oct 26
Last Quarter
Nov 3
New
Nov 10
First Quarter

Hourly Weather History & Observations

Time (EDT) Temp. Heat Index Dew Point Humidity Pressure Visibility Wind Dir Wind Speed Gust Speed Precip Events Conditions
12:50 AM 73.4 °F - 71.6 °F 94% 29.96 in 10.0 mi Calm Calm - N/A   Mostly Cloudy
12:53 AM 73.9 °F - 71.1 °F 91% 29.97 in 10.0 mi Calm Calm - N/A   Mostly Cloudy
1:15 AM 73.4 °F - 71.6 °F 94% 29.96 in 10.0 mi Calm Calm - N/A   Partly Cloudy
1:49 AM 73.4 °F - 71.6 °F 94% 29.95 in 10.0 mi Calm Calm - N/A   Mostly Cloudy
1:53 AM 73.0 °F - 71.1 °F 93% 29.96 in 10.0 mi Calm Calm - N/A   Mostly Cloudy
2:10 AM 73.4 °F - 71.6 °F 94% 29.95 in 10.0 mi Calm Calm - N/A   Partly Cloudy
2:53 AM 73.0 °F - 71.1 °F 93% 29.95 in 10.0 mi Calm Calm - N/A   Clear
3:53 AM 72.0 °F - 70.0 °F 93% 29.94 in 10.0 mi WNW 3.5 mph - N/A   Clear
4:53 AM 72.0 °F - 70.0 °F 93% 29.94 in 10.0 mi WNW 3.5 mph - N/A   Clear
5:10 AM 71.6 °F - 71.6 °F 100% 29.94 in 7.0 mi Calm Calm - N/A   Partly Cloudy
5:53 AM 72.0 °F - 70.0 °F 93% 29.96 in 7.0 mi Calm Calm - N/A   Clear
6:01 AM 69.8 °F - 69.8 °F 100% 29.95 in 1.8 mi Calm Calm - N/A   Partly Cloudy
6:04 AM 69.8 °F - 69.8 °F 100% 29.95 in 0.8 mi Calm Calm - N/A   Mist
6:15 AM 69.8 °F - 68.0 °F 94% 29.95 in 0.2 mi Calm Calm - N/A Fog Fog
6:29 AM 69.8 °F - 69.8 °F 100% 29.95 in 0.5 mi Calm Calm - N/A Fog Fog
6:38 AM 69.8 °F - 69.8 °F 100% 29.95 in 0.2 mi Calm Calm - N/A Fog Fog
6:53 AM 69.1 °F - 69.1 °F 100% - 0.2 mi Calm Calm - N/A Fog Fog
7:02 AM 69.8 °F - 69.8 °F 100% - 1.0 mi Calm Calm - N/A   Mist
7:09 AM 71.6 °F - 69.8 °F 94% - 0.2 mi Calm Calm - N/A Fog Fog
7:25 AM 71.6 °F - 71.6 °F 100% - 1.0 mi Calm Calm - N/A   Mist
7:32 AM 71.6 °F - 71.6 °F 100% - 1.0 mi Calm Calm - N/A   Clear
7:47 AM 71.6 °F - 71.6 °F 100% - 2.0 mi Calm Calm - N/A   Partly Cloudy
7:53 AM 72.0 °F - 71.1 °F 97% - 1.0 mi Calm Calm - N/A   Mist
8:07 AM 71.6 °F - 71.6 °F 100% - 0.2 mi Calm Calm - N/A Fog Fog
8:22 AM 71.6 °F - 71.6 °F 100% - 0.2 mi Calm Calm - N/A Fog Fog
8:53 AM 73.0 °F - 72.0 °F 96% - 5.0 mi NW 5.8 mph - N/A   Scattered Clouds
9:15 AM 73.4 °F - 71.6 °F 94% - 10.0 mi NW 4.6 mph - N/A   Mostly Cloudy
9:50 AM 75.2 °F - 71.6 °F 89% 30.01 in 3.0 mi NNW 4.6 mph - N/A   Overcast
9:53 AM 75.0 °F - 72.0 °F 90% 30.02 in 3.0 mi NW 4.6 mph - N/A   Overcast
10:10 AM 75.2 °F - 71.6 °F 89% 30.00 in 10.0 mi NNW 3.5 mph - N/A   Partly Cloudy
10:53 AM 80.1 °F 83.6 °F 71.1 °F 74% 30.01 in 10.0 mi Variable 4.6 mph - N/A   Partly Cloudy
11:53 AM 84.0 °F 87.0 °F 68.0 °F 58% 30.00 in 10.0 mi Variable 3.5 mph - N/A   Partly Cloudy
12:53 PM 84.9 °F 88.2 °F 68.0 °F 57% 29.98 in 10.0 mi North 6.9 mph - N/A   Scattered Clouds
1:53 PM 84.9 °F 87.1 °F 66.0 °F 53% 29.96 in 10.0 mi Variable 3.5 mph - N/A   Mostly Cloudy
2:53 PM 87.1 °F 88.9 °F 64.9 °F 48% 29.94 in 10.0 mi Variable 4.6 mph - N/A   Mostly Cloudy
3:53 PM 86.0 °F 87.3 °F 64.0 °F 48% 29.92 in 10.0 mi Calm Calm - N/A   Overcast
4:53 PM 84.9 °F 86.1 °F 64.0 °F 49% 29.92 in 10.0 mi ENE 5.8 mph - N/A   Mostly Cloudy
5:53 PM 86.0 °F 87.6 °F 64.9 °F 49% 29.92 in 10.0 mi NNE 5.8 mph - N/A   Scattered Clouds
6:53 PM 82.9 °F 85.4 °F 66.9 °F 58% 29.93 in 10.0 mi ENE 4.6 mph - N/A   Partly Cloudy
7:53 PM 79.0 °F - 70.0 °F 74% 29.94 in 10.0 mi East 8.1 mph - N/A   Scattered Clouds
8:53 PM 77.0 °F - 70.0 °F 79% 29.96 in 10.0 mi East 6.9 mph - N/A   Clear
9:53 PM 77.0 °F - 70.0 °F 79% 29.97 in 10.0 mi East 3.5 mph - N/A   Clear
10:53 PM 75.0 °F - 70.0 °F 84% 29.97 in 10.0 mi East 3.5 mph - N/A   Clear
11:53 PM 73.9 °F - 70.0 °F 87% 29.96 in 10.0 mi ESE 3.5 mph - N/A   Clear